Time,TemperatureF,DewpointF,PressureIn,WindDirection,WindDirectionDegrees,WindSpeedMPH,WindSpeedGustMPH,Humidity,HourlyPrecipIn,Conditions,Clouds,dailyrainin,SoftwareType,DateUTC
2013-01-08 00:00:00,30.4,3.4,30.11,NE,38,3.6,3.6,31,0.00,,CLR,0.00,VWS V14.01,2013-01-08 05:00:00,
2013-01-08 00:01:00,30.4,3.4,30.11,NE,38,3.6,3.6,31,0.00,,CLR,0.00,VWS V14.01,2013-01-08 05:01:00,
2013-01-08 00:07:00,30.4,3.4,30.08,NNE,26,2.7,3.6,31,0.00,,CLR,0.00,VWS V14.01,2013-01-08 05:07:00,
2013-01-08 00:12:00,30.4,2.7,30.08,NNE,26,3.1,3.1,30,0.00,,CLR,0.00,VWS V14.01,2013-01-08 05:12:00,
2013-01-08 00:17:00,30.0,3.1,30.08,NNE,26,2.2,2.2,31,0.00,,CLR,0.00,VWS V14.01,2013-01-08 05:17:00,
2013-01-08 00:22:00,29.8,2.9,30.08,NNE,26,0.0,0.0,31,0.00,,CLR,0.00,VWS V14.01,2013-01-08 05:22:00,
2013-01-08 00:27:00,29.8,2.9,30.08,NNE,26,0.0,0.0,31,0.00,,CLR,0.00,VWS V14.01,2013-01-08 05:27:00,
2013-01-08 00:32:00,29.8,2.9,30.08,NNE,26,0.0,0.0,31,0.00,,CLR,0.00,VWS V14.01,2013-01-08 05:32:00,
2013-01-08 00:37:00,30.4,3.4,30.08,NNE,26,0.0,0.0,31,0.00,,CLR,0.00,VWS V14.01,2013-01-08 05:37:00,
2013-01-08 00:42:00,30.2,3.2,30.08,NNE,26,0.0,0.0,31,0.00,,CLR,0.00,VWS V14.01,2013-01-08 05:42:00,
2013-01-08 00:47:00,30.2,3.2,30.08,NNE,26,0.0,0.0,31,0.00,,CLR,0.00,VWS V14.01,2013-01-08 05:47:00,
2013-01-08 00:52:00,30.2,3.2,30.08,NNE,26,0.0,0.0,31,0.00,,CLR,0.00,VWS V14.01,2013-01-08 05:52:00,
2013-01-08 00:57:00,30.2,3.9,30.08,NNE,26,0.0,0.0,32,0.00,,CLR,0.00,VWS V14.01,2013-01-08 05:57:00,
2013-01-08 01:03:00,30.4,4.7,30.08,NNE,26,0.0,0.0,33,0.00,,CLR,0.00,VWS V14.01,2013-01-08 06:03:00,
2013-01-08 01:08:00,30.6,4.9,30.08,NNE,26,0.0,0.0,33,0.00,,CLR,0.00,VWS V14.01,2013-01-08 06:08:00,
2013-01-08 01:13:00,30.6,4.9,30.08,NNE,26,0.0,0.0,33,0.00,,CLR,0.00,VWS V14.01,2013-01-08 06:13:00,
2013-01-08 01:18:00,30.4,4.1,30.08,NNE,26,0.0,0.0,32,0.00,,CLR,0.00,VWS V14.01,2013-01-08 06:18:00,
2013-01-08 01:23:00,30.4,4.1,30.08,NNE,26,0.0,0.0,32,0.00,,CLR,0.00,VWS V14.01,2013-01-08 06:23:00,
2013-01-08 01:28:00,30.0,5.1,30.08,NNE,26,0.0,0.0,34,0.00,,CLR,0.00,VWS V14.01,2013-01-08 06:28:00,
2013-01-08 01:33:00,29.7,4.7,30.08,NNE,26,0.0,0.0,34,0.00,,CLR,0.00,VWS V14.01,2013-01-08 06:33:00,
2013-01-08 01:38:00,29.5,5.2,30.08,NNE,26,0.0,0.0,35,0.00,,CLR,0.00,VWS V14.01,2013-01-08 06:38:00,
2013-01-08 01:43:00,29.5,5.2,30.08,NNE,26,0.0,0.0,35,0.00,,CLR,0.00,VWS V14.01,2013-01-08 06:43:00,
2013-01-08 01:48:00,29.5,5.8,30.08,NNE,26,0.0,0.0,36,0.00,,CLR,0.00,VWS V14.01,2013-01-08 06:48:00,
2013-01-08 01:54:00,29.5,6.4,30.08,NNE,26,0.0,0.0,37,0.00,,CLR,0.00,VWS V14.01,2013-01-08 06:54:00,
2013-01-08 01:59:00,29.5,6.4,30.08,NNE,26,0.0,0.0,37,0.00,,CLR,0.00,VWS V14.01,2013-01-08 06:59:00,
2013-01-08 02:04:00,29.8,7.3,30.08,NNE,26,0.0,0.0,38,0.00,,CLR,0.00,VWS V14.01,2013-01-08 07:04:00,
2013-01-08 02:09:00,29.8,6.8,30.08,NNE,26,0.0,0.0,37,0.00,,CLR,0.00,VWS V14.01,2013-01-08 07:09:00,
2013-01-08 02:14:00,30.0,7.5,30.08,NNE,26,0.0,0.0,38,0.00,,CLR,0.00,VWS V14.01,2013-01-08 07:14:00,
2013-01-08 02:19:00,30.0,7.5,30.08,NNE,26,0.0,0.0,38,0.00,,CLR,0.00,VWS V14.01,2013-01-08 07:19:00,
2013-01-08 02:24:00,30.0,7.5,30.08,NNE,26,0.0,0.0,38,0.00,,CLR,0.00,VWS V14.01,2013-01-08 07:24:00,
2013-01-08 02:29:00,30.2,7.1,30.08,NNE,26,0.0,0.0,37,0.00,,CLR,0.00,VWS V14.01,2013-01-08 07:29:00,
2013-01-08 02:34:00,30.2,7.1,30.08,NNE,26,0.0,0.0,37,0.00,,CLR,0.00,VWS V14.01,2013-01-08 07:34:00,
2013-01-08 02:40:00,30.0,6.9,30.08,NNE,26,0.0,0.0,37,0.00,,CLR,0.00,VWS V14.01,2013-01-08 07:40:00,
2013-01-08 02:45:00,30.2,7.1,30.05,NNE,26,0.0,0.0,37,0.00,,CLR,0.00,VWS V14.01,2013-01-08 07:45:00,
2013-01-08 02:50:00,29.7,6.0,30.05,NNE,26,0.0,0.0,36,0.00,,CLR,0.00,VWS V14.01,2013-01-08 07:50:00,
2013-01-08 02:55:00,28.9,5.9,30.05,NNE,26,0.0,0.0,37,0.00,,CLR,0.00,VWS V14.01,2013-01-08 07:55:00,
2013-01-08 03:00:00,28.9,6.5,30.08,NNE,26,0.0,0.0,38,0.00,,CLR,0.00,VWS V14.01,2013-01-08 08:00:00,
2013-01-08 03:05:00,28.8,6.4,30.08,NNE,26,0.0,0.0,38,0.00,,CLR,0.00,VWS V14.01,2013-01-08 08:05:00,
2013-01-08 03:10:00,28.9,8.2,30.08,NNE,26,0.0,0.0,41,0.00,,CLR,0.00,VWS V14.01,2013-01-08 08:10:00,
2013-01-08 03:15:00,29.1,8.4,30.08,NNE,26,0.0,0.0,41,0.00,,CLR,0.00,VWS V14.01,2013-01-08 08:15:00,
2013-01-08 03:20:00,29.1,8.4,30.08,NNE,26,0.0,0.0,41,0.00,,CLR,0.00,VWS V14.01,2013-01-08 08:20:00,
2013-01-08 03:26:00,29.1,7.8,30.08,NNE,26,0.0,0.0,40,0.00,,CLR,0.00,VWS V14.01,2013-01-08 08:26:00,
2013-01-08 03:31:00,29.1,7.8,30.08,NNE,26,0.0,0.0,40,0.00,,CLR,0.00,VWS V14.01,2013-01-08 08:31:00,
2013-01-08 03:36:00,29.1,7.8,30.08,NNE,26,0.0,0.0,40,0.00,,CLR,0.00,VWS V14.01,2013-01-08 08:36:00,
2013-01-08 03:41:00,29.1,7.8,30.08,NNE,26,0.0,0.0,40,0.00,,CLR,0.00,VWS V14.01,2013-01-08 08:41:00,
2013-01-08 03:46:00,29.3,8.0,30.05,NNE,26,2.7,2.7,40,0.00,,CLR,0.00,VWS V14.01,2013-01-08 08:46:00,
2013-01-08 03:51:00,29.1,7.8,30.05,NNE,26,2.2,2.2,40,0.00,,CLR,0.00,VWS V14.01,2013-01-08 08:51:00,
2013-01-08 03:56:00,29.3,8.0,30.05,NNE,26,0.0,0.0,40,0.00,,CLR,0.00,VWS V14.01,2013-01-08 08:56:00,
2013-01-08 04:01:00,29.3,8.0,30.05,NNE,26,0.0,0.0,40,0.00,,CLR,0.00,VWS V14.01,2013-01-08 09:01:00,
2013-01-08 04:06:00,29.3,8.0,30.05,NNE,26,0.0,0.0,40,0.00,,CLR,0.00,VWS V14.01,2013-01-08 09:06:00,
2013-01-08 04:11:00,29.7,8.3,30.05,NNE,26,0.0,0.0,40,0.00,,CLR,0.00,VWS V14.01,2013-01-08 09:11:00,
2013-01-08 04:16:00,29.7,8.3,30.05,NNE,26,0.0,0.0,40,0.00,,CLR,0.00,VWS V14.01,2013-01-08 09:16:00,
2013-01-08 04:21:00,29.7,8.3,30.05,NNE,26,0.0,0.0,40,0.00,,CLR,0.00,VWS V14.01,2013-01-08 09:21:00,
2013-01-08 04:27:00,29.5,7.6,30.05,NNE,26,0.0,0.0,39,0.00,,CLR,0.00,VWS V14.01,2013-01-08 09:27:00,
2013-01-08 04:32:00,29.5,8.1,30.05,NNE,26,2.7,2.7,40,0.00,,CLR,0.00,VWS V14.01,2013-01-08 09:32:00,
2013-01-08 04:37:00,29.7,8.3,30.05,NNE,26,2.2,2.2,40,0.00,,CLR,0.00,VWS V14.01,2013-01-08 09:37:00,
2013-01-08 04:42:00,29.8,8.5,30.05,NNE,26,2.2,2.7,40,0.00,,CLR,0.00,VWS V14.01,2013-01-08 09:42:00,
2013-01-08 04:47:00,29.8,8.5,30.05,NNE,26,0.0,0.0,40,0.00,,CLR,0.00,VWS V14.01,2013-01-08 09:47:00,
2013-01-08 04:52:00,30.2,7.7,30.05,NNE,26,2.2,2.2,38,0.00,,CLR,0.00,VWS V14.01,2013-01-08 09:52:00,
2013-01-08 04:57:00,30.2,7.7,30.05,NNE,26,0.0,0.0,38,0.00,,CLR,0.00,VWS V14.01,2013-01-08 09:57:00,
2013-01-08 05:02:00,30.2,7.7,30.05,NNE,26,0.0,0.0,38,0.00,,CLR,0.00,VWS V14.01,2013-01-08 10:02:00,
2013-01-08 05:07:00,29.8,7.9,30.05,NNE,26,0.0,0.0,39,0.00,,CLR,0.00,VWS V14.01,2013-01-08 10:07:00,
2013-01-08 05:12:00,29.8,7.9,30.05,NNE,26,0.0,0.0,39,0.00,,CLR,0.00,VWS V14.01,2013-01-08 10:12:00,
2013-01-08 05:17:00,29.1,7.3,30.05,NNE,26,0.0,0.0,39,0.00,,CLR,0.00,VWS V14.01,2013-01-08 10:17:00,
2013-01-08 05:23:00,29.1,8.4,30.05,NNE,26,0.0,0.0,41,0.00,,CLR,0.00,VWS V14.01,2013-01-08 10:23:00,
2013-01-08 05:28:00,29.1,8.4,30.05,NNE,26,0.0,0.0,41,0.00,,CLR,0.00,VWS V14.01,2013-01-08 10:28:00,
2013-01-08 05:33:00,29.5,8.7,30.05,NNE,26,0.0,0.0,41,0.00,,CLR,0.00,VWS V14.01,2013-01-08 10:33:00,
2013-01-08 05:38:00,29.5,8.7,30.05,NNE,26,0.0,0.0,41,0.00,,CLR,0.00,VWS V14.01,2013-01-08 10:38:00,
2013-01-08 05:43:00,29.5,8.7,30.05,NNE,26,0.0,0.0,41,0.00,,CLR,0.00,VWS V14.01,2013-01-08 10:43:00,
2013-01-08 05:48:00,29.8,8.5,30.08,NNE,26,0.0,0.0,40,0.00,,CLR,0.00,VWS V14.01,2013-01-08 10:48:00,
2013-01-08 05:53:00,29.8,9.0,30.08,NNE,26,0.0,0.0,41,0.00,,CLR,0.00,VWS V14.01,2013-01-08 10:53:00,
2013-01-08 05:58:00,30.2,9.4,30.05,NNE,26,0.0,0.0,41,0.00,,CLR,0.00,VWS V14.01,2013-01-08 10:58:00,
2013-01-08 06:03:00,30.2,9.4,30.05,NNE,26,0.0,0.0,41,0.00,,CLR,0.00,VWS V14.01,2013-01-08 11:03:00,
2013-01-08 06:08:00,30.6,9.1,30.05,NNE,26,0.0,0.0,40,0.00,,CLR,0.00,VWS V14.01,2013-01-08 11:08:00,
2013-01-08 06:13:00,30.4,9.0,30.05,NNE,26,0.0,0.0,40,0.00,,CLR,0.00,VWS V14.01,2013-01-08 11:13:00,
2013-01-08 06:18:00,30.4,9.0,30.05,NNE,26,0.0,0.0,40,0.00,,CLR,0.00,VWS V14.01,2013-01-08 11:18:00,
2013-01-08 06:23:00,30.4,9.0,30.05,NNE,26,0.0,0.0,40,0.00,,CLR,0.00,VWS V14.01,2013-01-08 11:23:00,
2013-01-08 06:29:00,30.2,9.4,30.05,NNE,26,0.0,0.0,41,0.00,,CLR,0.00,VWS V14.01,2013-01-08 11:29:00,
2013-01-08 06:34:00,30.0,9.2,30.08,NNE,26,0.0,0.0,41,0.00,,CLR,0.00,VWS V14.01,2013-01-08 11:34:00,
2013-01-08 06:39:00,30.2,9.4,30.08,NNE,26,0.0,0.0,41,0.00,,CLR,0.00,VWS V14.01,2013-01-08 11:39:00,
2013-01-08 06:44:00,30.2,9.4,30.08,NNE,26,0.0,0.0,41,0.00,,CLR,0.00,VWS V14.01,2013-01-08 11:44:00,
2013-01-08 06:49:00,30.2,9.4,30.08,NNE,26,0.0,0.0,41,0.00,,CLR,0.00,VWS V14.01,2013-01-08 11:49:00,
2013-01-08 06:54:00,30.2,9.4,30.08,NNE,26,0.0,0.0,41,0.00,,CLR,0.00,VWS V14.01,2013-01-08 11:54:00,
2013-01-08 06:59:00,30.2,9.4,30.08,NNE,26,0.0,0.0,41,0.00,,CLR,0.00,VWS V14.01,2013-01-08 11:59:00,
2013-01-08 07:04:00,30.4,9.5,30.08,NNE,26,0.0,0.0,41,0.00,,CLR,0.00,VWS V14.01,2013-01-08 12:04:00,
2013-01-08 07:09:00,30.7,9.8,30.08,NNE,26,0.0,0.0,41,0.00,,CLR,0.00,VWS V14.01,2013-01-08 12:09:00,
2013-01-08 07:14:00,30.7,9.3,30.08,NNE,26,0.0,0.0,40,0.00,,CLR,0.00,VWS V14.01,2013-01-08 12:14:00,
2013-01-08 07:20:00,31.3,9.8,30.08,NNE,26,0.0,0.0,40,0.00,,CLR,0.00,VWS V14.01,2013-01-08 12:20:00,
2013-01-08 07:25:00,31.8,10.3,30.08,NNE,26,0.0,0.0,40,0.00,,CLR,0.00,VWS V14.01,2013-01-08 12:25:00,
2013-01-08 07:30:00,32.2,6.3,30.08,North,357,2.7,2.7,33,0.00,,CLR,0.00,VWS V14.01,2013-01-08 12:30:00,
2013-01-08 07:35:00,33.6,5.5,30.08,NNW,332,2.7,2.7,30,0.00,,CLR,0.00,VWS V14.01,2013-01-08 12:35:00,
2013-01-08 07:40:00,34.9,6.6,30.08,NNW,338,2.7,2.7,30,0.00,,CLR,0.00,VWS V14.01,2013-01-08 12:40:00,
2013-01-08 07:45:00,35.4,7.1,30.08,NNW,338,2.7,2.7,30,0.00,,CLR,0.00,VWS V14.01,2013-01-08 12:45:00,
2013-01-08 07:50:00,35.8,7.4,30.08,NW,321,0.0,3.1,30,0.00,,CLR,0.00,VWS V14.01,2013-01-08 12:50:00,
2013-01-08 07:55:00,36.5,8.0,30.08,NW,320,2.2,3.1,30,0.00,,CLR,0.00,VWS V14.01,2013-01-08 12:55:00,
2013-01-08 08:00:00,37.0,8.5,30.08,NW,315,0.0,3.1,30,0.00,,CLR,0.00,VWS V14.01,2013-01-08 13:00:00,
2013-01-08 08:06:00,37.6,9.0,30.08,NNW,343,0.0,0.0,30,0.00,,CLR,0.00,VWS V14.01,2013-01-08 13:06:00,
2013-01-08 08:11:00,37.6,9.0,30.08,NNW,343,0.0,0.0,30,0.00,,CLR,0.00,VWS V14.01,2013-01-08 13:11:00,
2013-01-08 08:16:00,37.9,9.3,30.08,NNW,346,3.1,3.1,30,0.00,,CLR,0.00,VWS V14.01,2013-01-08 13:16:00,
2013-01-08 08:21:00,38.1,10.2,30.08,NNW,346,0.0,0.0,31,0.00,,CLR,0.00,VWS V14.01,2013-01-08 13:21:00,
2013-01-08 08:26:00,38.5,10.5,30.08,NNW,346,0.0,0.0,31,0.00,,CLR,0.00,VWS V14.01,2013-01-08 13:26:00,
2013-01-08 08:31:00,38.5,10.5,30.11,NNW,346,0.0,0.0,31,0.00,,CLR,0.00,VWS V14.01,2013-01-08 13:31:00,
2013-01-08 08:36:00,38.5,10.5,30.11,NNW,346,0.0,0.0,31,0.00,,CLR,0.00,VWS V14.01,2013-01-08 13:36:00,
2013-01-08 08:41:00,38.7,10.6,30.11,NNW,346,0.0,0.0,31,0.00,,CLR,0.00,VWS V14.01,2013-01-08 13:41:00,
2013-01-08 08:46:00,39.0,11.0,30.11,NNW,346,0.0,0.0,31,0.00,,CLR,0.00,VWS V14.01,2013-01-08 13:46:00,
2013-01-08 08:52:00,39.9,12.5,30.11,NNW,346,0.0,0.0,32,0.00,,CLR,0.00,VWS V14.01,2013-01-08 13:52:00,
2013-01-08 08:57:00,40.5,12.2,30.11,NNW,346,0.0,0.0,31,0.00,,CLR,0.00,VWS V14.01,2013-01-08 13:57:00,
2013-01-08 09:02:00,41.2,13.6,30.11,NNW,333,0.0,0.0,32,0.00,,SCT026,0.00,VWS V14.01,2013-01-08 14:02:00,
2013-01-08 09:07:00,41.5,13.9,30.11,NNW,333,0.0,0.0,32,0.00,,SCT026,0.00,VWS V14.01,2013-01-08 14:07:00,
2013-01-08 09:12:00,42.4,14.0,30.11,SSE,164,0.0,3.1,31,0.00,,SCT026,0.00,VWS V14.01,2013-01-08 14:12:00,
2013-01-08 09:17:00,43.3,14.0,30.11,SE,142,0.0,3.1,30,0.00,,SCT026,0.00,VWS V14.01,2013-01-08 14:17:00,
2013-01-08 09:22:00,43.5,14.2,30.11,SE,142,0.0,0.0,30,0.00,,SCT026,0.00,VWS V14.01,2013-01-08 14:22:00,
2013-01-08 09:27:00,43.7,13.5,30.11,SE,142,0.0,0.0,29,0.00,,SCT026,0.00,VWS V14.01,2013-01-08 14:27:00,
2013-01-08 09:32:00,43.9,13.7,30.11,SE,142,0.0,0.0,29,0.00,,SCT026,0.00,VWS V14.01,2013-01-08 14:32:00,
2013-01-08 09:37:00,44.6,13.5,30.11,SE,142,0.0,0.0,28,0.00,,SCT026,0.00,VWS V14.01,2013-01-08 14:37:00,
2013-01-08 09:42:00,45.3,14.1,30.11,SE,142,0.0,0.0,28,0.00,,SCT026,0.00,VWS V14.01,2013-01-08 14:42:00,
2013-01-08 09:47:00,45.1,14.0,30.11,SE,142,0.0,0.0,28,0.00,,SCT026,0.00,VWS V14.01,2013-01-08 14:47:00,
2013-01-08 09:53:00,45.1,13.2,30.11,SE,142,2.7,2.7,27,0.00,,SCT026,0.00,VWS V14.01,2013-01-08 14:53:00,
2013-01-08 09:58:00,45.1,14.0,30.11,SE,142,0.0,0.0,28,0.00,,SCT026,0.00,VWS V14.01,2013-01-08 14:58:00,
2013-01-08 10:03:00,45.5,13.5,30.14,SE,142,0.0,0.0,27,0.00,,CLR,0.00,VWS V14.01,2013-01-08 15:03:00,
2013-01-08 10:08:00,45.5,13.5,30.14,SE,142,0.0,2.2,27,0.00,,CLR,0.00,VWS V14.01,2013-01-08 15:08:00,
2013-01-08 10:13:00,46.2,12.4,30.14,SE,142,0.0,0.0,25,0.00,,CLR,0.00,VWS V14.01,2013-01-08 15:13:00,
2013-01-08 10:18:00,46.4,11.6,30.14,SE,142,0.0,0.0,24,0.00,,CLR,0.00,VWS V14.01,2013-01-08 15:18:00,
2013-01-08 10:24:00,46.8,14.6,30.14,SE,142,0.0,0.0,27,0.00,,CLR,0.00,VWS V14.01,2013-01-08 15:24:00,
2013-01-08 10:29:00,47.1,14.9,30.14,SE,142,0.0,0.0,27,0.00,,CLR,0.00,VWS V14.01,2013-01-08 15:29:00,
2013-01-08 10:34:00,47.5,15.2,30.14,SE,142,0.0,0.0,27,0.00,,CLR,0.00,VWS V14.01,2013-01-08 15:34:00,
2013-01-08 10:39:00,48.2,13.1,30.14,South,181,0.0,0.0,24,0.00,,CLR,0.00,VWS V14.01,2013-01-08 15:39:00,
2013-01-08 10:44:00,48.6,13.4,30.14,SSE,157,0.0,0.0,24,0.00,,CLR,0.00,VWS V14.01,2013-01-08 15:44:00,
2013-01-08 10:49:00,49.6,11.3,30.14,SSE,158,0.0,0.0,21,0.00,,CLR,0.00,VWS V14.01,2013-01-08 15:49:00,
2013-01-08 10:54:00,49.6,11.3,30.14,SSE,158,0.0,0.0,21,0.00,,CLR,0.00,VWS V14.01,2013-01-08 15:54:00,
2013-01-08 10:59:00,49.5,11.2,30.14,SSE,158,0.0,0.0,21,0.00,,CLR,0.00,VWS V14.01,2013-01-08 15:59:00,
2013-01-08 11:04:00,49.1,10.9,30.14,South,190,0.0,0.0,21,0.00,,FEW080,0.00,VWS V14.01,2013-01-08 16:04:00,
2013-01-08 11:09:00,49.1,10.9,30.14,South,190,0.0,0.0,21,0.00,,FEW080,0.00,VWS V14.01,2013-01-08 16:09:00,
2013-01-08 11:14:00,49.3,11.0,30.14,SSW,205,3.1,3.1,21,0.00,,FEW080,0.00,VWS V14.01,2013-01-08 16:14:00,
2013-01-08 11:19:00,48.6,10.4,30.14,SSW,205,0.0,0.0,21,0.00,,FEW080,0.00,VWS V14.01,2013-01-08 16:19:00,
2013-01-08 11:25:00,48.9,10.7,30.14,SSW,205,0.0,0.0,21,0.00,,FEW080,0.00,VWS V14.01,2013-01-08 16:25:00,
2013-01-08 11:30:00,50.7,12.2,30.14,ESE,109,3.1,4.0,21,0.00,,FEW080,0.00,VWS V14.01,2013-01-08 16:30:00,
2013-01-08 11:35:00,50.7,12.2,30.14,WSW,240,2.2,3.6,21,0.00,,FEW080,0.00,VWS V14.01,2013-01-08 16:35:00,
2013-01-08 11:40:00,53.6,13.5,30.14,WSW,258,2.7,2.7,20,0.00,,FEW080,0.00,VWS V14.01,2013-01-08 16:40:00,
2013-01-08 11:45:00,54.5,14.3,30.11,SW,226,0.0,0.0,20,0.00,,FEW080,0.00,VWS V14.01,2013-01-08 16:45:00,
2013-01-08 11:50:00,55.6,15.2,30.11,SW,226,0.0,0.0,20,0.00,,FEW080,0.00,VWS V14.01,2013-01-08 16:50:00,
2013-01-08 11:55:00,56.1,15.6,30.11,ENE,75,2.7,2.7,20,0.00,,FEW080,0.00,VWS V14.01,2013-01-08 16:55:00,
2013-01-08 12:00:00,56.1,15.6,30.11,ESE,113,3.6,3.6,20,0.00,,FEW028,0.00,VWS V14.01,2013-01-08 17:00:00,
2013-01-08 12:05:00,55.4,15.0,30.11,ESE,118,2.2,2.2,20,0.00,,FEW028,0.00,VWS V14.01,2013-01-08 17:05:00,
2013-01-08 12:10:00,52.5,10.2,30.11,SSE,160,2.7,2.7,18,0.00,,FEW028,0.00,VWS V14.01,2013-01-08 17:10:00,
2013-01-08 12:16:00,52.5,10.2,30.11,South,180,3.6,3.6,18,0.00,,FEW028,0.00,VWS V14.01,2013-01-08 17:16:00,
2013-01-08 12:21:00,52.3,10.1,30.11,SE,141,2.7,2.7,18,0.00,,FEW028,0.00,VWS V14.01,2013-01-08 17:21:00,
2013-01-08 12:26:00,51.6,10.7,30.11,SE,126,0.0,3.1,19,0.00,,FEW028,0.00,VWS V14.01,2013-01-08 17:26:00,
2013-01-08 12:31:00,51.8,9.7,30.11,SE,126,0.0,0.0,18,0.00,,FEW028,0.00,VWS V14.01,2013-01-08 17:31:00,
2013-01-08 12:36:00,51.3,10.4,30.11,ESE,116,2.7,3.1,19,0.00,,FEW028,0.00,VWS V14.01,2013-01-08 17:36:00,
2013-01-08 12:41:00,50.7,10.0,30.11,ESE,113,2.2,2.2,19,0.00,,FEW028,0.00,VWS V14.01,2013-01-08 17:41:00,
2013-01-08 12:46:00,50.5,9.8,30.11,ESE,111,3.1,3.1,19,0.00,,FEW028,0.00,VWS V14.01,2013-01-08 17:46:00,
2013-01-08 12:51:00,50.2,9.5,30.11,ESE,110,2.7,2.7,19,0.00,,FEW028,0.00,VWS V14.01,2013-01-08 17:51:00,
2013-01-08 12:56:00,50.2,9.5,30.11,ESE,113,0.0,2.7,19,0.00,,FEW028,0.00,VWS V14.01,2013-01-08 17:56:00,
2013-01-08 13:01:00,50.4,11.9,30.11,SE,126,0.0,0.0,21,0.00,,FEW039,0.00,VWS V14.01,2013-01-08 18:01:00,
2013-01-08 13:06:00,51.3,12.7,30.11,ESE,103,3.1,3.1,21,0.00,,FEW039,0.00,VWS V14.01,2013-01-08 18:06:00,
2013-01-08 13:11:00,52.7,13.9,30.11,SW,227,4.0,4.0,21,0.00,,FEW039,0.00,VWS V14.01,2013-01-08 18:11:00,
2013-01-08 13:17:00,52.0,13.3,30.11,ESE,122,0.0,0.0,21,0.00,,FEW039,0.00,VWS V14.01,2013-01-08 18:17:00,
2013-01-08 13:22:00,52.0,13.3,30.11,East,99,3.6,3.6,21,0.00,,FEW039,0.00,VWS V14.01,2013-01-08 18:22:00,
2013-01-08 13:27:00,53.4,14.5,30.08,SSE,160,3.1,3.6,21,0.00,,FEW039,0.00,VWS V14.01,2013-01-08 18:27:00,
2013-01-08 13:32:00,54.3,14.1,30.08,ESE,106,3.1,3.1,20,0.00,,FEW039,0.00,VWS V14.01,2013-01-08 18:32:00,
2013-01-08 13:37:00,55.9,15.5,30.08,South,190,0.0,2.2,20,0.00,,FEW039,0.00,VWS V14.01,2013-01-08 18:37:00,
2013-01-08 13:42:00,56.3,15.8,30.08,SE,129,2.7,3.1,20,0.00,,FEW039,0.00,VWS V14.01,2013-01-08 18:42:00,
2013-01-08 13:48:00,56.1,15.6,30.08,SSW,194,0.0,0.0,20,0.00,,FEW039,0.00,VWS V14.01,2013-01-08 18:48:00,
2013-01-08 13:53:00,56.8,16.2,30.08,South,170,2.2,2.7,20,0.00,,FEW039,0.00,VWS V14.01,2013-01-08 18:53:00,
2013-01-08 13:58:00,57.6,15.6,30.08,SSE,148,0.0,0.0,19,0.00,,FEW039,0.00,VWS V14.01,2013-01-08 18:58:00,
2013-01-08 14:03:00,56.3,15.8,30.08,SSE,151,3.1,3.1,20,0.00,,CLR,0.00,VWS V14.01,2013-01-08 19:03:00,
2013-01-08 14:08:00,56.1,15.6,30.08,ESE,117,3.6,3.6,20,0.00,,CLR,0.00,VWS V14.01,2013-01-08 19:08:00,
2013-01-08 14:13:00,56.1,15.6,30.08,SW,234,3.6,3.6,20,0.00,,CLR,0.00,VWS V14.01,2013-01-08 19:13:00,
2013-01-08 14:18:00,53.8,13.7,30.08,South,169,3.1,3.6,20,0.00,,CLR,0.00,VWS V14.01,2013-01-08 19:18:00,
2013-01-08 14:23:00,53.2,14.3,30.08,SE,134,2.7,3.1,21,0.00,,CLR,0.00,VWS V14.01,2013-01-08 19:23:00,
2013-01-08 14:29:00,52.0,9.8,30.08,SE,133,2.7,3.6,18,0.00,,CLR,0.00,VWS V14.01,2013-01-08 19:29:00,
2013-01-08 14:34:00,51.8,9.7,30.08,SSW,210,0.0,0.0,18,0.00,,CLR,0.00,VWS V14.01,2013-01-08 19:34:00,
2013-01-08 14:39:00,51.6,13.0,30.08,SSW,209,3.6,3.6,21,0.00,,CLR,0.00,VWS V14.01,2013-01-08 19:39:00,
2013-01-08 14:44:00,51.6,13.0,30.08,SSW,200,3.1,3.1,21,0.00,,CLR,0.00,VWS V14.01,2013-01-08 19:44:00,
2013-01-08 14:49:00,52.9,14.0,30.08,SE,139,3.1,3.1,21,0.00,,CLR,0.00,VWS V14.01,2013-01-08 19:49:00,
2013-01-08 14:54:00,55.8,15.3,30.08,ESE,123,3.1,3.6,20,0.00,,CLR,0.00,VWS V14.01,2013-01-08 19:54:00,
2013-01-08 14:59:00,61.3,18.8,30.08,South,170,3.1,3.1,19,0.00,,CLR,0.00,VWS V14.01,2013-01-08 19:59:00,
2013-01-08 15:04:00,62.8,18.7,30.08,SSE,162,2.7,2.7,18,0.00,,CLR,0.00,VWS V14.01,2013-01-08 20:04:00,
2013-01-08 15:09:00,64.0,19.7,30.08,SSW,196,3.6,4.0,18,0.00,,CLR,0.00,VWS V14.01,2013-01-08 20:09:00,
2013-01-08 15:14:00,64.2,19.9,30.08,SE,145,4.0,4.0,18,0.00,,CLR,0.00,VWS V14.01,2013-01-08 20:14:00,
2013-01-08 15:19:00,64.2,19.9,30.08,SE,144,3.6,3.6,18,0.00,,CLR,0.00,VWS V14.01,2013-01-08 20:19:00,
2013-01-08 15:24:00,64.2,19.9,30.08,South,176,6.3,6.3,18,0.00,,CLR,0.00,VWS V14.01,2013-01-08 20:24:00,
2013-01-08 15:29:00,61.7,19.0,30.08,SSE,151,4.0,4.0,19,0.00,,CLR,0.00,VWS V14.01,2013-01-08 20:29:00,
2013-01-08 15:35:00,60.6,18.2,30.08,SSE,165,3.6,3.6,19,0.00,,CLR,0.00,VWS V14.01,2013-01-08 20:35:00,
2013-01-08 15:40:00,57.4,15.5,30.08,SSW,200,3.1,3.1,19,0.00,,CLR,0.00,VWS V14.01,2013-01-08 20:40:00,
2013-01-08 15:45:00,54.5,11.9,30.08,SSW,207,5.8,5.8,18,0.00,,CLR,0.00,VWS V14.01,2013-01-08 20:45:00,
2013-01-08 15:50:00,53.8,11.3,30.08,South,187,3.1,5.8,18,0.00,,CLR,0.00,VWS V14.01,2013-01-08 20:50:00,
2013-01-08 15:55:00,52.7,10.4,30.08,SE,129,3.6,3.6,18,0.00,,CLR,0.00,VWS V14.01,2013-01-08 20:55:00,
2013-01-08 16:00:00,52.7,10.4,30.08,ESE,113,0.0,2.2,18,0.00,,CLR,0.00,VWS V14.01,2013-01-08 21:00:00,
2013-01-08 16:05:00,51.4,10.6,30.08,SSW,210,2.2,2.2,19,0.00,,CLR,0.00,VWS V14.01,2013-01-08 21:05:00,
2013-01-08 16:10:00,51.4,10.6,30.08,South,190,2.7,2.7,19,0.00,,CLR,0.00,VWS V14.01,2013-01-08 21:10:00,
2013-01-08 16:15:00,51.4,12.8,30.08,SW,234,4.0,4.0,21,0.00,,CLR,0.00,VWS V14.01,2013-01-08 21:15:00,
2013-01-08 16:20:00,52.2,13.4,30.08,SSW,205,4.0,4.0,21,0.00,,CLR,0.00,VWS V14.01,2013-01-08 21:20:00,
2013-01-08 16:25:00,52.2,13.4,30.08,SW,225,2.2,2.2,21,0.00,,CLR,0.00,VWS V14.01,2013-01-08 21:25:00,
2013-01-08 16:30:00,53.1,14.2,30.08,SW,223,2.2,4.0,21,0.00,,CLR,0.00,VWS V14.01,2013-01-08 21:30:00,
2013-01-08 16:36:00,53.4,14.5,30.08,SSW,208,2.7,2.7,21,0.00,,CLR,0.00,VWS V14.01,2013-01-08 21:36:00,
2013-01-08 16:41:00,53.1,14.2,30.08,South,191,2.7,2.7,21,0.00,,CLR,0.00,VWS V14.01,2013-01-08 21:41:00,
2013-01-08 16:46:00,54.1,14.0,30.08,West,266,4.0,4.0,20,0.00,,CLR,0.00,VWS V14.01,2013-01-08 21:46:00,
2013-01-08 16:51:00,55.0,14.7,30.08,SW,216,2.2,2.7,20,0.00,,CLR,0.00,VWS V14.01,2013-01-08 21:51:00,
2013-01-08 16:56:00,55.4,15.0,30.08,South,189,0.0,0.0,20,0.00,,CLR,0.00,VWS V14.01,2013-01-08 21:56:00,
2013-01-08 17:01:00,55.8,15.3,30.08,South,189,0.0,0.0,20,0.00,,CLR,0.00,VWS V14.01,2013-01-08 22:01:00,
2013-01-08 17:06:00,55.4,15.0,30.08,South,189,0.0,0.0,20,0.00,,CLR,0.00,VWS V14.01,2013-01-08 22:06:00,
2013-01-08 17:11:00,55.4,15.0,30.08,South,189,0.0,0.0,20,0.00,,CLR,0.00,VWS V14.01,2013-01-08 22:11:00,
2013-01-08 17:16:00,53.1,14.2,30.08,South,189,0.0,0.0,21,0.00,,CLR,0.00,VWS V14.01,2013-01-08 22:16:00,
2013-01-08 17:21:00,50.9,12.4,30.08,South,189,0.0,0.0,21,0.00,,CLR,0.00,VWS V14.01,2013-01-08 22:21:00,
2013-01-08 17:26:00,48.6,10.4,30.08,South,189,3.6,3.6,21,0.00,,CLR,0.00,VWS V14.01,2013-01-08 22:26:00,
2013-01-08 17:31:00,47.1,10.2,30.08,South,189,0.0,0.0,22,0.00,,CLR,0.00,VWS V14.01,2013-01-08 22:31:00,
2013-01-08 17:36:00,45.9,9.2,30.08,South,189,0.0,0.0,22,0.00,,CLR,0.00,VWS V14.01,2013-01-08 22:36:00,
2013-01-08 17:41:00,44.8,8.3,30.08,South,189,0.0,0.0,22,0.00,,CLR,0.00,VWS V14.01,2013-01-08 22:41:00,
2013-01-08 17:46:00,44.8,8.3,30.08,South,189,0.0,0.0,22,0.00,,CLR,0.00,VWS V14.01,2013-01-08 22:46:00,
2013-01-08 17:51:00,43.2,13.1,30.08,South,189,0.0,0.0,29,0.00,,CLR,0.00,VWS V14.01,2013-01-08 22:51:00,
2013-01-08 17:57:00,42.8,12.8,30.08,South,189,0.0,0.0,29,0.00,,CLR,0.00,VWS V14.01,2013-01-08 22:57:00,
2013-01-08 18:02:00,42.6,14.8,30.08,South,189,0.0,0.0,32,0.00,,CLR,0.00,VWS V14.01,2013-01-08 23:02:00,
2013-01-08 18:07:00,42.6,15.6,30.08,South,189,0.0,0.0,33,0.00,,CLR,0.00,VWS V14.01,2013-01-08 23:07:00,
2013-01-08 18:12:00,42.4,15.4,30.08,South,189,0.0,0.0,33,0.00,,CLR,0.00,VWS V14.01,2013-01-08 23:12:00,
2013-01-08 18:17:00,41.9,14.2,30.11,South,189,0.0,0.0,32,0.00,,CLR,0.00,VWS V14.01,2013-01-08 23:17:00,
2013-01-08 18:22:00,41.5,17.8,30.11,South,189,0.0,0.0,38,0.00,,CLR,0.00,VWS V14.01,2013-01-08 23:22:00,
2013-01-08 18:27:00,41.9,19.4,30.11,South,189,0.0,0.0,40,0.00,,CLR,0.00,VWS V14.01,2013-01-08 23:27:00,
2013-01-08 18:32:00,42.6,20.0,30.11,South,189,0.0,0.0,40,0.00,,CLR,0.00,VWS V14.01,2013-01-08 23:32:00,
2013-01-08 18:38:00,42.6,20.0,30.11,South,189,0.0,0.0,40,0.00,,CLR,0.00,VWS V14.01,2013-01-08 23:38:00,
2013-01-08 18:43:00,43.2,20.5,30.11,South,189,0.0,0.0,40,0.00,,CLR,0.00,VWS V14.01,2013-01-08 23:43:00,
2013-01-08 18:48:00,43.9,20.5,30.11,South,189,0.0,0.0,39,0.00,,CLR,0.00,VWS V14.01,2013-01-08 23:48:00,
2013-01-08 18:53:00,44.2,20.9,30.11,South,189,0.0,0.0,39,0.00,,CLR,0.00,VWS V14.01,2013-01-08 23:53:00,
2013-01-08 18:58:00,44.2,20.9,30.11,South,189,0.0,0.0,39,0.00,,CLR,0.00,VWS V14.01,2013-01-08 23:58:00,
2013-01-08 19:03:00,44.2,20.3,30.11,South,189,0.0,0.0,38,0.00,,CLR,0.00,VWS V14.01,2013-01-09 00:03:00,
2013-01-08 19:08:00,44.2,20.3,30.11,South,189,0.0,0.0,38,0.00,,CLR,0.00,VWS V14.01,2013-01-09 00:08:00,
2013-01-08 19:13:00,44.2,20.3,30.11,South,189,0.0,0.0,38,0.00,,CLR,0.00,VWS V14.01,2013-01-09 00:13:00,
2013-01-08 19:18:00,44.8,20.7,30.11,South,189,0.0,0.0,38,0.00,,CLR,0.00,VWS V14.01,2013-01-09 00:18:00,
2013-01-08 19:23:00,45.5,20.8,30.11,South,189,0.0,0.0,37,0.00,,CLR,0.00,VWS V14.01,2013-01-09 00:23:00,
2013-01-08 19:28:00,45.5,20.8,30.11,South,189,0.0,0.0,37,0.00,,CLR,0.00,VWS V14.01,2013-01-09 00:28:00,
2013-01-08 19:33:00,45.5,20.1,30.11,South,189,0.0,0.0,36,0.00,,CLR,0.00,VWS V14.01,2013-01-09 00:33:00,
2013-01-08 19:38:00,45.9,19.8,30.11,South,189,0.0,0.0,35,0.00,,CLR,0.00,VWS V14.01,2013-01-09 00:38:00,
2013-01-08 19:44:00,46.0,19.9,30.11,South,189,0.0,0.0,35,0.00,,CLR,0.00,VWS V14.01,2013-01-09 00:44:00,
2013-01-08 19:49:00,46.4,20.2,30.11,South,189,0.0,0.0,35,0.00,,CLR,0.00,VWS V14.01,2013-01-09 00:49:00,
2013-01-08 19:54:00,46.6,21.7,30.11,WSW,240,0.0,4.0,37,0.00,,CLR,0.00,VWS V14.01,2013-01-09 00:54:00,
2013-01-08 19:59:00,47.1,22.2,30.11,WNW,293,0.0,0.0,37,0.00,,CLR,0.00,VWS V14.01,2013-01-09 00:59:00,
2013-01-08 20:04:00,47.3,21.7,30.11,WNW,293,0.0,0.0,36,0.00,,CLR,0.00,VWS V14.01,2013-01-09 01:04:00,
2013-01-08 20:09:00,47.5,21.9,30.11,WNW,293,0.0,0.0,36,0.00,,CLR,0.00,VWS V14.01,2013-01-09 01:09:00,
2013-01-08 20:14:00,47.7,21.4,30.11,SE,145,3.1,3.1,35,0.00,,CLR,0.00,VWS V14.01,2013-01-09 01:14:00,
2013-01-08 20:19:00,47.7,21.4,30.11,South,178,0.0,0.0,35,0.00,,CLR,0.00,VWS V14.01,2013-01-09 01:19:00,
2013-01-08 20:24:00,46.9,17.9,30.11,South,177,0.0,0.0,31,0.00,,CLR,0.00,VWS V14.01,2013-01-09 01:24:00,
2013-01-08 20:29:00,46.8,17.7,30.11,East,91,2.7,2.7,31,0.00,,CLR,0.00,VWS V14.01,2013-01-09 01:29:00,
2013-01-08 20:35:00,46.2,18.0,30.11,East,91,2.2,2.2,32,0.00,,CLR,0.00,VWS V14.01,2013-01-09 01:35:00,
2013-01-08 20:40:00,46.0,18.6,30.11,East,91,0.0,0.0,33,0.00,,CLR,0.00,VWS V14.01,2013-01-09 01:40:00,
2013-01-08 20:45:00,46.0,18.6,30.11,East,91,0.0,0.0,33,0.00,,CLR,0.00,VWS V14.01,2013-01-09 01:45:00,
2013-01-08 20:50:00,45.9,19.8,30.11,East,91,0.0,0.0,35,0.00,,CLR,0.00,VWS V14.01,2013-01-09 01:50:00,
2013-01-08 20:55:00,45.9,20.4,30.11,East,91,0.0,0.0,36,0.00,,CLR,0.00,VWS V14.01,2013-01-09 01:55:00,
2013-01-08 21:00:00,46.0,21.9,30.11,East,91,0.0,0.0,38,0.00,,CLR,0.00,VWS V14.01,2013-01-09 02:00:00,
2013-01-08 21:05:00,46.0,21.9,30.11,East,91,0.0,0.0,38,0.00,,CLR,0.00,VWS V14.01,2013-01-09 02:05:00,
2013-01-08 21:10:00,46.2,22.0,30.11,East,91,0.0,0.0,38,0.00,,CLR,0.00,VWS V14.01,2013-01-09 02:10:00,
2013-01-08 21:15:00,46.2,22.6,30.11,East,91,0.0,0.0,39,0.00,,CLR,0.00,VWS V14.01,2013-01-09 02:15:00,
2013-01-08 21:20:00,46.2,22.6,30.11,East,91,0.0,0.0,39,0.00,,CLR,0.00,VWS V14.01,2013-01-09 02:20:00,
2013-01-08 21:26:00,46.2,22.0,30.11,East,91,0.0,0.0,38,0.00,,CLR,0.00,VWS V14.01,2013-01-09 02:26:00,
2013-01-08 21:31:00,46.2,22.6,30.11,East,91,0.0,0.0,39,0.00,,CLR,0.00,VWS V14.01,2013-01-09 02:31:00,
2013-01-08 21:36:00,46.2,22.6,30.11,East,91,0.0,0.0,39,0.00,,CLR,0.00,VWS V14.01,2013-01-09 02:36:00,
2013-01-08 21:41:00,46.6,23.6,30.11,East,91,0.0,0.0,40,0.00,,CLR,0.00,VWS V14.01,2013-01-09 02:41:00,
2013-01-08 21:46:00,46.6,23.6,30.14,East,91,0.0,0.0,40,0.00,,CLR,0.00,VWS V14.01,2013-01-09 02:46:00,
2013-01-08 21:51:00,46.8,23.7,30.14,East,91,0.0,0.0,40,0.00,,CLR,0.00,VWS V14.01,2013-01-09 02:51:00,
2013-01-08 21:57:00,46.8,23.7,30.14,East,91,0.0,0.0,40,0.00,,CLR,0.00,VWS V14.01,2013-01-09 02:57:00,
2013-01-08 22:02:00,46.8,23.7,30.14,East,91,0.0,0.0,40,0.00,,BKN026,0.00,VWS V14.01,2013-01-09 03:02:00,
2013-01-08 22:07:00,46.8,23.7,30.14,East,91,0.0,0.0,40,0.00,,BKN026,0.00,VWS V14.01,2013-01-09 03:07:00,
2013-01-08 22:12:00,46.9,23.9,30.14,East,91,0.0,0.0,40,0.00,,BKN026,0.00,VWS V14.01,2013-01-09 03:12:00,
2013-01-08 22:17:00,46.8,23.7,30.14,East,91,0.0,0.0,40,0.00,,BKN026,0.00,VWS V14.01,2013-01-09 03:17:00,
2013-01-08 22:22:00,46.8,23.7,30.14,East,91,0.0,0.0,40,0.00,,BKN026,0.00,VWS V14.01,2013-01-09 03:22:00,
2013-01-08 22:27:00,46.8,23.7,30.14,East,91,0.0,0.0,40,0.00,,BKN026,0.00,VWS V14.01,2013-01-09 03:27:00,
2013-01-08 22:32:00,46.8,23.7,30.14,East,91,0.0,0.0,40,0.00,,BKN026,0.00,VWS V14.01,2013-01-09 03:32:00,
2013-01-08 22:37:00,46.8,23.7,30.14,East,91,0.0,0.0,40,0.00,,BKN026,0.00,VWS V14.01,2013-01-09 03:37:00,
2013-01-08 22:42:00,46.8,23.7,30.14,East,91,0.0,0.0,40,0.00,,BKN026,0.00,VWS V14.01,2013-01-09 03:42:00,
2013-01-08 22:48:00,46.8,23.7,30.14,East,91,0.0,0.0,40,0.00,,BKN026,0.00,VWS V14.01,2013-01-09 03:48:00,
2013-01-08 22:53:00,46.9,23.9,30.14,East,91,0.0,0.0,40,0.00,,BKN026,0.00,VWS V14.01,2013-01-09 03:53:00,
2013-01-08 22:58:00,47.1,24.1,30.14,East,91,0.0,0.0,40,0.00,,BKN026,0.00,VWS V14.01,2013-01-09 03:58:00,
2013-01-08 23:03:00,47.1,24.6,30.14,East,91,0.0,0.0,41,0.00,,OVC034,0.00,VWS V14.01,2013-01-09 04:03:00,
2013-01-08 23:08:00,47.3,24.8,30.14,East,91,0.0,0.0,41,0.00,,OVC034,0.00,VWS V14.01,2013-01-09 04:08:00,
2013-01-08 23:13:00,47.3,25.4,30.11,East,91,0.0,0.0,42,0.00,,OVC034,0.00,VWS V14.01,2013-01-09 04:13:00,
2013-01-08 23:18:00,47.3,25.4,30.11,East,91,0.0,0.0,42,0.00,,OVC034,0.00,VWS V14.01,2013-01-09 04:18:00,
2013-01-08 23:23:00,47.5,26.1,30.11,East,91,0.0,0.0,43,0.00,,OVC034,0.00,VWS V14.01,2013-01-09 04:23:00,
2013-01-08 23:28:00,47.5,26.1,30.11,East,91,0.0,0.0,43,0.00,,OVC034,0.00,VWS V14.01,2013-01-09 04:28:00,
2013-01-08 23:34:00,47.5,26.1,30.11,East,91,0.0,0.0,43,0.00,,OVC034,0.00,VWS V14.01,2013-01-09 04:34:00,
2013-01-08 23:39:00,47.5,26.7,30.11,East,91,0.0,0.0,44,0.00,,OVC034,0.00,VWS V14.01,2013-01-09 04:39:00,
2013-01-08 23:44:00,47.7,26.8,30.11,East,91,0.0,0.0,44,0.00,,OVC034,0.00,VWS V14.01,2013-01-09 04:44:00,
2013-01-08 23:49:00,47.7,26.8,30.11,East,91,0.0,0.0,44,0.00,,OVC034,0.00,VWS V14.01,2013-01-09 04:49:00,
2013-01-08 23:54:00,47.7,26.8,30.11,East,91,0.0,0.0,44,0.00,,OVC034,0.00,VWS V14.01,2013-01-09 04:54:00,
2013-01-08 23:59:00,47.7,27.4,30.11,East,91,0.0,0.0,45,0.00,,OVC034,0.00,VWS V14.01,2013-01-09 04:59:00,